Regional Weather Roundup
Issued by NWS

Home | Current Version | Previous Version | Text Only | Print | Product List | Glossary Off
Versions: 1 2 3 4 5 6 7 8 9 10 11 12 13 14 15 16 17 18 19 20 21 22 23 24 25 26 27 28 29 30 31 32 33 34 35 36 37 38 39 40 41 42 43 44 45 46 47 48 49 50

000
ASUS43 KLSX 282207
RWRMO

WEATHER SUMMARY FOR MISSOURI
NATIONAL WEATHER SERVICE SPRINGFIELD MO
500 PM CDT TUE JUL 28 2015

NOTE: "FAIR" INDICATES FEW OR NO CLOUDS BELOW 12,000 FEET WITH NO
       SIGNIFICANT WEATHER AND/OR OBSTRUCTIONS TO VISIBILITY.
       CURRENT SKY AND/OR WEATHER CONDITIONS ARE NOT AVAILABLE FOR
       CHILLICOTHE AND FARMINGTON.

MOZ001>031-035>038-043-044-053-054-282300-
...NORTHERN AND WESTERN MISSOURI...

CITY           SKY/WX    TMP DP  RH WIND       PRES   REMARKS
KANSAS CTY INT MOSUNNY   93  74  53 SW13      29.87F HX 103
KANSAS C DTWN  SUNNY     96  72  45 S10G24    29.85F HX 104
LEE`S SUMMIT   SUNNY     94  71  47 S9G21     29.89F HX 101
ST JOSEPH      MOSUNNY   93  77  59 S12       29.84F HX 107
CHILLICOTHE      N/A     93  75  55 S10       29.88F HX 104
KIRKSVILLE     MOSUNNY   92  76  59 S12       29.91F HX 104

$$
MOZ066>068-077>081-088>096-101>105-282300-
...SOUTHWEST MISSOURI...

CITY           SKY/WX    TMP DP  RH WIND       PRES   REMARKS
SPRINGFIELD    MOSUNNY   92  72  51 S13       29.96F HX  99
JOPLIN         MOSUNNY   93  73  52 S16G22    29.93F HX 102

$$
MOZ032>034-039>042-045>050-055>058-069>072-282300-
...CENTRAL MISSOURI...

CITY           SKY/WX    TMP DP  RH WIND       PRES   REMARKS
COLUMBIA       SUNNY     92  76  59 S16       29.92F HX 104
JEFFERSON CITY MOSUNNY   94  74  52 S12       29.89F HX 104
ROLLA          SUNNY     92  76  59 SW10      29.94F HX 104
SEDALIA        SUNNY     95  73  48 S16       29.92F HX 104
WHITEMAN AFB   SUNNY     94  73  49 S16G25    29.89F HX 103
WARRENSBURG    SUNNY     91  70  49 S12G21    29.89S HX  97
OSAGE BEACH    SUNNY     95  73  49 SW14      29.93F HX 105

$$
MOZ051-052-059>065-282300-
...EAST CENTRAL MISSOURI...

CITY           SKY/WX    TMP DP  RH WIND       PRES   REMARKS
ST LOUIS INTL  MOSUNNY   98  74  45 VRB5      29.92S HX 109
SPIRIT OF STL  MOSUNNY   95  79  59 S8        29.90S HX 112
ST CHARLES     MOSUNNY   94  79  61 VRB3      29.90R HX 111

$$
MOZ072>076-082>087-097>100-106>115-282300-
...SOUTH CENTRAL AND SOUTHEAST MISSOURI...

CITY           SKY/WX    TMP DP  RH WIND       PRES   REMARKS
CAPE GIRARDEAU MOSUNNY   93  79  63 SW9       29.91F HX 110
FARMINGTON     SUNNY     90  75  62 SW7       29.99S HX 100
POPLAR BLUFF   SUNNY     93  76  57 SW8       29.92F HX 105
WEST PLAINS    SUNNY     92  73  53 SW7       30.00F HX 100

$$



USA.gov is the U.S. government's official web portal to all federal, state and local government web resources and services.